GLOBALSTAR M067 [+]

Last updated on July 6, 2021, 3:36 p.m. UTC

1 32263U 07048A   21186.82277576 -.00000095  00000-0  14731-4 0  9992
2 32263  51.9738 296.0847 0001658 137.7373  15.2662 12.40599928630468
UTC
Height (km)
Latitude
Longitude
Inclination
Orbital Period
UTC large
Height (km)
Speed (km/s)
/
Latitude / Longitude
Inclination (degrees)
Orbital Period (minutes)
Azimuth
Elevation
Range (km)
Doppler Factor
iOS Compass Heading
iOS Angle